When you browse on this site, cookies collect data to enhance your experience and personalize the content and advertising you see.
Visit our Privacy Policy to learn more. By continuing to use the site, you agree to this use of cookies and data.

Stündliche Wetter Bolshie Vorobevichi

Heute, 4 Juli, Samstag

Zeit Temperatur Niederschläge Wind Luftdruck Luftfeuchtigkeit
00:00 +16°C° 0 mm 1 m/S 745 mmHg 89%
01:00 +16°C° 0 mm 1 m/S 746 mmHg 90%
02:00 +15°C° 0 mm 1 m/S 746 mmHg 91%
03:00 +15°C° 0 mm 1 m/S 746 mmHg 91%
04:00 +15°C° 0 mm 2 m/S 746 mmHg 92%
05:00 +15°C° 0 mm 2 m/S 746 mmHg 92%
06:00 +17°C° 0 mm 2 m/S 747 mmHg 87%
07:00 +18°C° 0 mm 2 m/S 747 mmHg 83%
08:00 +20°C° 0 mm 2 m/S 747 mmHg 78%
09:00 +21°C° 0 mm 2 m/S 747 mmHg 74%
10:00 +23°C° 0 mm 2 m/S 747 mmHg 70%
11:00 +24°C° 0 mm 2 m/S 748 mmHg 66%
12:00 +24°C° 0 mm 2 m/S 747 mmHg 63%
13:00 +25°C° 0 mm 3 m/S 747 mmHg 61%
14:00 +25°C° 0 mm 3 m/S 747 mmHg 59%
15:00 +25°C° 0 mm 3 m/S 747 mmHg 60%
16:00 +25°C° 0 mm 3 m/S 747 mmHg 61%
17:00 +25°C° 0 mm 3 m/S 746 mmHg 63%
18:00 +23°C° 0 mm 2 m/S 746 mmHg 69%
19:00 +21°C° 0 mm 2 m/S 746 mmHg 74%
20:00 +20°C° 0 mm 1 m/S 746 mmHg 80%
21:00 +19°C° 0 mm 1 m/S 746 mmHg 82%
22:00 +18°C° 0 mm 1 m/S 747 mmHg 84%
23:00 +16°C° 0 mm 1 m/S 747 mmHg 85%

Morgen, 5 Juli, Sonntag

Zeit Temperatur Niederschläge Wind Luftdruck Luftfeuchtigkeit
00:00 +16°C° 0 mm 1 m/S 747 mmHg 87%
01:00 +16°C° 0 mm 2 m/S 746 mmHg 89%
02:00 +15°C° 0 mm 2 m/S 746 mmHg 91%
03:00 +15°C° 0 mm 2 m/S 746 mmHg 91%
04:00 +15°C° 0 mm 2 m/S 746 mmHg 91%
05:00 +15°C° 0 mm 2 m/S 746 mmHg 91%
06:00 +17°C° 0 mm 3 m/S 746 mmHg 87%
07:00 +19°C° 0 mm 3 m/S 746 mmHg 83%
08:00 +20°C° 0 mm 3 m/S 746 mmHg 78%
09:00 +21°C° 0 mm 4 m/S 746 mmHg 75%
10:00 +22°C° 0 mm 4 m/S 746 mmHg 71%
11:00 +25°C° 0 mm 5 m/S 746 mmHg 67%
12:00 +25°C° 0.1 mm 5 m/S 745 mmHg 67%
13:00 +25°C° 0.1 mm 5 m/S 745 mmHg 67%
14:00 +25°C° 0.1 mm 5 m/S 745 mmHg 66%
15:00 +25°C° 0.1 mm 4 m/S 745 mmHg 68%
16:00 +25°C° 0.1 mm 4 m/S 745 mmHg 69%
17:00 +25°C° 0.1 mm 4 m/S 745 mmHg 71%
18:00 +24°C° 0.1 mm 3 m/S 745 mmHg 77%
19:00 +22°C° 0.1 mm 3 m/S 745 mmHg 83%
20:00 +21°C° 0.1 mm 2 m/S 745 mmHg 89%
21:00 +20°C° 0 mm 2 m/S 744 mmHg 91%
22:00 +19°C° 0 mm 2 m/S 744 mmHg 93%
23:00 +18°C° 0 mm 2 m/S 744 mmHg 95%

übermorgen, 6 Juli, Montag

Zeit Temperatur Niederschläge Wind Luftdruck Luftfeuchtigkeit
00:00 +18°C° 0 mm 3 m/S 744 mmHg 95%
01:00 +18°C° 0 mm 3 m/S 744 mmHg 95%
02:00 +18°C° 0 mm 3 m/S 744 mmHg 96%
03:00 +18°C° 0 mm 3 m/S 743 mmHg 95%
04:00 +18°C° 0 mm 3 m/S 743 mmHg 95%
05:00 +18°C° 0 mm 3 m/S 743 mmHg 94%
06:00 +19°C° 0 mm 4 m/S 743 mmHg 91%
07:00 +21°C° 0 mm 4 m/S 743 mmHg 87%
08:00 +22°C° 0 mm 5 m/S 743 mmHg 84%
09:00 +23°C° 0.3 mm 5 m/S 742 mmHg 82%
10:00 +25°C° 0.3 mm 5 m/S 742 mmHg 79%
11:00 +25°C° 0.3 mm 5 m/S 742 mmHg 77%
12:00 +26°C° 0.5 mm 5 m/S 742 mmHg 77%
13:00 +26°C° 0.5 mm 5 m/S 741 mmHg 76%
14:00 +26°C° 0.5 mm 5 m/S 741 mmHg 75%
15:00 +26°C° 0.4 mm 5 m/S 741 mmHg 77%
16:00 +26°C° 0.4 mm 4 m/S 741 mmHg 78%
17:00 +26°C° 0.4 mm 4 m/S 740 mmHg 80%
18:00 +23°C° 0.4 mm 4 m/S 740 mmHg 83%
19:00 +22°C° 0.4 mm 3 m/S 740 mmHg 87%
20:00 +21°C° 0.4 mm 2 m/S 740 mmHg 90%
21:00 +20°C° 0 mm 3 m/S 741 mmHg 91%
22:00 +19°C° 0 mm 3 m/S 741 mmHg 92%
23:00 +18°C° 0 mm 3 m/S 741 mmHg 93%

7 Juli, Dienstag

Zeit Temperatur Niederschläge Wind Luftdruck Luftfeuchtigkeit
00:00 +17°C° 0 mm 3 m/S 742 mmHg 94%
01:00 +16°C° 0 mm 3 m/S 742 mmHg 95%
02:00 +14°C° 0 mm 3 m/S 742 mmHg 95%
03:00 +13°C° 0 mm 3 m/S 742 mmHg 94%
04:00 +14°C° 0 mm 2 m/S 743 mmHg 93%
05:00 +13°C° 0 mm 2 m/S 743 mmHg 92%
06:00 +13°C° 0 mm 3 m/S 744 mmHg 87%
07:00 +14°C° 0 mm 3 m/S 744 mmHg 82%
08:00 +15°C° 0 mm 4 m/S 744 mmHg 77%
09:00 +17°C° 0 mm 4 m/S 745 mmHg 73%
10:00 +18°C° 0 mm 4 m/S 745 mmHg 68%
11:00 +19°C° 0 mm 5 m/S 745 mmHg 63%
12:00 +20°C° 0 mm 5 m/S 745 mmHg 63%
13:00 +20°C° 0 mm 5 m/S 745 mmHg 62%
14:00 +20°C° 0 mm 5 m/S 745 mmHg 61%
15:00 +20°C° 0.2 mm 5 m/S 745 mmHg 63%
16:00 +19°C° 0.2 mm 5 m/S 745 mmHg 65%
17:00 +19°C° 0.2 mm 5 m/S 745 mmHg 67%
18:00 +17°C° 0 mm 4 m/S 745 mmHg 71%
19:00 +16°C° 0 mm 3 m/S 745 mmHg 75%
20:00 +14°C° 0 mm 3 m/S 746 mmHg 79%
21:00 +13°C° 0 mm 2 m/S 746 mmHg 82%
22:00 +12°C° 0 mm 2 m/S 746 mmHg 86%
23:00 +10°C° 0 mm 2 m/S 747 mmHg 90%

8 Juli, Mittwoch

Zeit Temperatur Niederschläge Wind Luftdruck Luftfeuchtigkeit
00:00 +9°C° 0 mm 2 m/S 747 mmHg 91%
01:00 +9°C° 0 mm 2 m/S 747 mmHg 92%
02:00 +8°C° 0 mm 2 m/S 747 mmHg 93%
03:00 +9°C° 0 mm 2 m/S 747 mmHg 93%
04:00 +9°C° 0 mm 2 m/S 747 mmHg 92%
05:00 +9°C° 0 mm 2 m/S 747 mmHg 92%
06:00 +11°C° 0 mm 3 m/S 747 mmHg 87%
07:00 +12°C° 0 mm 3 m/S 747 mmHg 81%
08:00 +14°C° 0 mm 3 m/S 747 mmHg 75%
09:00 +15°C° 0.3 mm 4 m/S 747 mmHg 73%
10:00 +17°C° 0.3 mm 4 m/S 747 mmHg 71%
11:00 +17°C° 0.3 mm 5 m/S 747 mmHg 69%
12:00 +17°C° 0.5 mm 5 m/S 747 mmHg 68%
13:00 +17°C° 0.5 mm 6 m/S 747 mmHg 68%
14:00 +17°C° 0.5 mm 6 m/S 747 mmHg 68%
15:00 +17°C° 0.4 mm 6 m/S 747 mmHg 70%
16:00 +16°C° 0.4 mm 6 m/S 747 mmHg 73%
17:00 +16°C° 0.4 mm 6 m/S 747 mmHg 76%
18:00 +15°C° 0.1 mm 5 m/S 747 mmHg 79%
19:00 +14°C° 0.1 mm 4 m/S 747 mmHg 83%
20:00 +13°C° 0.1 mm 3 m/S 747 mmHg 87%
21:00 +12°C° 0 mm 3 m/S 748 mmHg 89%
22:00 +11°C° 0 mm 3 m/S 748 mmHg 91%
23:00 +10°C° 0 mm 3 m/S 748 mmHg 94%

9 Juli, Donnerstag

Zeit Temperatur Niederschläge Wind Luftdruck Luftfeuchtigkeit
00:00 +10°C° 0 mm 3 m/S 748 mmHg 94%
01:00 +9°C° 0 mm 3 m/S 749 mmHg 95%
02:00 +9°C° 0 mm 3 m/S 749 mmHg 95%
03:00 +9°C° 0 mm 3 m/S 749 mmHg 95%
04:00 +9°C° 0 mm 3 m/S 749 mmHg 95%
05:00 +9°C° 0 mm 3 m/S 749 mmHg 96%
06:00 +11°C° 0 mm 3 m/S 749 mmHg 89%
07:00 +12°C° 0 mm 3 m/S 749 mmHg 83%
08:00 +14°C° 0 mm 3 m/S 749 mmHg 77%
09:00 +16°C° 0.1 mm 3 m/S 749 mmHg 72%
10:00 +18°C° 0.1 mm 4 m/S 749 mmHg 67%
11:00 +19°C° 0.1 mm 4 m/S 749 mmHg 62%
12:00 +19°C° 0.1 mm 4 m/S 748 mmHg 62%
13:00 +19°C° 0.1 mm 5 m/S 748 mmHg 61%
14:00 +20°C° 0.1 mm 5 m/S 748 mmHg 61%
15:00 +19°C° 0 mm 4 m/S 747 mmHg 65%
16:00 +19°C° 0 mm 3 m/S 747 mmHg 69%
17:00 +19°C° 0 mm 3 m/S 747 mmHg 73%
18:00 +18°C° 0.1 mm 3 m/S 746 mmHg 77%
19:00 +17°C° 0.1 mm 3 m/S 746 mmHg 82%
20:00 +16°C° 0.1 mm 3 m/S 746 mmHg 86%
21:00 +15°C° 0 mm 4 m/S 746 mmHg 84%
22:00 +15°C° 0 mm 4 m/S 746 mmHg 81%
23:00 +17°C° 0 mm 4 m/S 745 mmHg 79%
Mehr zeigen